This is the latest recevied weather packets stored in our database for station/object YS1AHL-28. If no packets are shown the sender has not sent any weather packets the latest 10 day(s).
| Time | Temp. | Humidity | Pressure | Rain* | Wind** | Luminosity | Snow |
|---|---|---|---|---|---|---|---|
| 1787601658 | 21.67° C | 61% | 1011 hPa | 0 mm | - | - | - |
| 1787601598 | 21.67° C | 61% | 1011 hPa | 0 mm | - | - | - |
| 1787601057 | 21.11° C | 61% | 1011 hPa | 0.25 mm | - | - | - |
| 1787600997 | 21.11° C | 61% | 1011 hPa | 0.25 mm | - | - | - |
| 1787600457 | 21.11° C | 65% | 1011 hPa | 2.03 mm | - | - | - |
| 1787600397 | 21.11° C | 65% | 1011 hPa | 2.03 mm | - | - | - |
| 1787599856 | 21.67° C | 65% | 1010 hPa | 1.52 mm | - | - | - |
| 1787599796 | 21.67° C | 65% | 1010 hPa | 1.52 mm | - | - | - |
| 1787599256 | 20.56° C | 63% | 1010 hPa | 0 mm | - | - | - |
| 1787599196 | 20.56° C | 63% | 1010 hPa | 0 mm | - | - | - |
| 1787598655 | 21.11° C | 63% | 1010 hPa | 0 mm | - | - | - |
| 1787598595 | 21.11° C | 63% | 1010 hPa | 0 mm | - | - | - |
| 1787598055 | 21.67° C | 65% | 1010 hPa | 0 mm | - | - | - |
| 1787597994 | 21.67° C | 65% | 1010 hPa | 0 mm | - | - | - |
| 1787597454 | 21.67° C | 64% | 1010 hPa | 0 mm | - | - | - |
| 1787597394 | 21.67° C | 64% | 1010 hPa | 0 mm | - | - | - |
| 1787596853 | 21.11° C | 69% | 1010 hPa | 0 mm | - | - | - |
| 1787596793 | 21.11° C | 69% | 1010 hPa | 0 mm | - | - | - |
| 1787596253 | 21.11° C | 69% | 1010 hPa | 0 mm | - | - | - |
| 1787596193 | 21.11° C | 69% | 1010 hPa | 0 mm | - | - | - |
| 1787595652 | 21.11° C | 67% | 1010 hPa | 0 mm | - | - | - |
| 1787595592 | 21.11° C | 67% | 1010 hPa | 0 mm | - | - | - |
| 1787595051 | 21.67° C | 65% | 1010 hPa | 0 mm | - | - | - |
| 1787594991 | 21.67° C | 65% | 1010 hPa | 0 mm | - | - | - |
| 1787594451 | 22.22° C | 62% | 1010 hPa | 0 mm | - | - | - |
* Rain latest hour (hover to see other rain measurements)
** Current wind speed in m/s (hover to see current wind gust speed)